Moriarty, NM

3:47 PM MDT on June 22, 2017 (GMT -0600)
Moriarty

Weather History for K0E0 - April, 2013

Change the Weather History Date:

Friday, April 5, 2013

  Actual Average (KABQ) Record (KABQ)
Temperature  
Mean Temperature 53 °F -  
Max Temperature 74 °F 68 °F 81 °F (1972)
Min Temperature 32 °F 37 °F 19 °F (1945)
Degree Days  
Heating Degree Days 12    
Growing Degree Days 3 (Base 50)    
Moisture  
Dew Point 12 °F    
Average Humidity 21    
Maximum Humidity 35    
Minimum Humidity 10    
Precipitation  
Precipitation 0.00 in - - ()
Sea Level Pressure  
Sea Level Pressure 30.07 in    
Wind  
Wind Speed 7 mph (WSW)    
Max Wind Speed 29 mph    
Max Gust Speed 37 mph    
Visibility 10 miles    
Events      
Averages and records for this station are not official NWS values.
T = Trace of Precipitation, MM = Missing Value Source: NWS Daily Summary

Daily Weather History Graph

Daily Weather History Graph

Search for Another Location

Airport or City:

Trip Planner

Search our weather history database for the weather conditions in past years. The results will help you decide how hot, cold, wet, or windy it might be!

Date:

Astronomy

Apr. 05, 2013 Rise Set
Actual Time 6:44 AM MDT 7:28 PM MDT
Civil Twilight 6:19 AM MDT 7:54 PM MDT
Nautical Twilight 5:49 AM MDT 8:24 PM MDT
Astronomical Twilight 5:18 AM MDT 8:55 PM MDT
Moon 3:43 AM MDT (4/5) 3:05 PM MDT (4/5)
Length of Visible Light 13h 35m
Length of Day
12h 43m
Waning Crescent, 23% of the Moon is Illuminated
Apr 5
Waning Crescent
Apr 10
New
Apr 18
First Quarter
Apr 25
Full
May 2
Last Quarter

Hourly Weather History & Observations

Time (MDT) Temp. Windchill Dew Point Humidity Pressure Visibility Wind Dir Wind Speed Gust Speed Precip Events Conditions
12:15 AM 39.0 °F - 6.1 °F 26% 30.20 in 10.0 mi Calm Calm - N/A   Clear
12:35 AM 37.2 °F 34.7 °F 5.2 °F 26% 30.20 in 10.0 mi SSW 3.5 mph - N/A   Clear
12:55 AM 38.5 °F - 6.6 °F 27% 30.19 in 10.0 mi Calm Calm - N/A   Clear
1:15 AM 34.3 °F - 4.6 °F 29% 30.19 in 10.0 mi Calm Calm - N/A   Clear
1:35 AM 36.5 °F 33.9 °F 5.2 °F 27% 30.19 in 10.0 mi West 3.5 mph - N/A   Clear
1:55 AM 35.2 °F 31.2 °F 5.7 °F 29% 30.18 in 10.0 mi WNW 4.6 mph - N/A   Clear
2:15 AM 32.4 °F 29.1 °F 5.2 °F 32% 30.17 in 10.0 mi NW 3.5 mph - N/A   Clear
2:35 AM 32.5 °F - 4.3 °F 30% 30.17 in 10.0 mi Calm Calm - N/A   Clear
2:55 AM 33.3 °F 28.9 °F 6.6 °F 33% 30.16 in 10.0 mi NNW 4.6 mph - N/A   Clear
3:15 AM 33.3 °F 28.9 °F 6.4 °F 32% 30.16 in 10.0 mi North 4.6 mph - N/A   Clear
3:35 AM 34.2 °F 31.2 °F 6.8 °F 32% 30.15 in 10.0 mi NE 3.5 mph - N/A   Clear
3:55 AM 34.9 °F 32.0 °F 7.7 °F 32% 30.15 in 10.0 mi NNE 3.5 mph - N/A   Clear
4:15 AM 34.2 °F 31.2 °F 7.5 °F 33% 30.15 in 10.0 mi NNE 3.5 mph - N/A   Clear
4:35 AM 34.9 °F - 7.9 °F 32% 30.15 in 10.0 mi Calm Calm - N/A   Clear
4:55 AM 34.9 °F - 8.4 °F 33% 30.15 in 10.0 mi Calm Calm - N/A   Clear
5:15 AM 35.1 °F - 8.6 °F 33% 30.15 in 10.0 mi Calm Calm - N/A   Clear
5:35 AM 36.3 °F 32.5 °F 9.5 °F 33% 30.15 in 10.0 mi NE 4.6 mph - N/A   Clear
5:55 AM 37.2 °F 34.7 °F 9.3 °F 32% 30.15 in 10.0 mi East 3.5 mph - N/A   Clear
6:15 AM 35.8 °F - 8.6 °F 32% 30.15 in 10.0 mi Calm Calm - N/A   Clear
6:35 AM 35.8 °F 33.0 °F 9.5 °F 34% 30.15 in 10.0 mi NNW 3.5 mph - N/A   Clear
6:55 AM 35.8 °F 30.9 °F 10.0 °F 34% 30.15 in 10.0 mi NNW 5.8 mph - N/A   Clear
7:15 AM 36.0 °F - 10.2 °F 34% 30.15 in 10.0 mi Calm Calm - N/A   Clear
7:35 AM 37.0 °F - 10.9 °F 34% 30.16 in 10.0 mi Calm Calm - N/A   Clear
7:55 AM 38.3 °F - 12.4 °F 35% 30.16 in 10.0 mi Calm Calm - N/A   Clear
8:15 AM 40.3 °F - 12.9 °F 33% 30.17 in 10.0 mi Calm Calm - N/A   Clear
8:35 AM 41.2 °F - 11.8 °F 30% 30.17 in 10.0 mi Calm Calm - N/A   Clear
8:55 AM 43.2 °F - 12.4 °F 29% 30.17 in 10.0 mi Calm Calm - N/A   Clear
9:15 AM 49.1 °F - 13.1 °F 24% 30.16 in 10.0 mi Calm Calm - N/A   Clear
9:35 AM 50.7 °F - 13.6 °F 23% 30.16 in 10.0 mi Calm Calm - N/A   Clear
9:55 AM 53.6 °F - 13.1 °F 20% 30.16 in 10.0 mi Calm Calm - N/A   Clear
10:15 AM 55.8 °F - 13.1 °F 19% 30.16 in 10.0 mi South 4.6 mph - N/A   Clear
10:35 AM 59.7 °F - 13.8 °F 17% 30.14 in 10.0 mi SSE 5.8 mph - N/A   Clear
10:55 AM 67.6 °F - 14.2 °F 13% 30.13 in 10.0 mi South 10.4 mph - N/A   Clear
11:15 AM 69.3 °F - 12.9 °F 11% 30.12 in 10.0 mi SSW 11.5 mph 17.3 mph N/A   Clear
11:35 AM 72.3 °F - 13.3 °F 10% 30.11 in 10.0 mi South 21.9 mph 25.3 mph N/A   Clear
11:55 AM 71.1 °F - 12.7 °F 11% 30.10 in 10.0 mi SW 24.2 mph 32.2 mph N/A   Clear
12:15 PM 73.8 °F - 13.1 °F 10% 30.09 in 10.0 mi WSW 20.7 mph 32.2 mph N/A   Scattered Clouds
12:35 PM 73.2 °F - 14.2 °F 11% 30.08 in 10.0 mi WSW 19.6 mph 27.6 mph N/A   Mostly Cloudy
12:55 PM 71.2 °F - 16.2 °F 12% 30.08 in 10.0 mi WSW 21.9 mph 36.8 mph N/A   Mostly Cloudy
1:15 PM 72.3 °F - 14.4 °F 11% 30.07 in 10.0 mi SSW 23.0 mph 34.5 mph N/A   Scattered Clouds
1:35 PM 70.3 °F - 13.5 °F 11% 30.06 in 10.0 mi SW 28.8 mph 34.5 mph N/A   Scattered Clouds
1:55 PM 68.2 °F - 18.5 °F 15% 30.06 in 10.0 mi WSW 21.9 mph 32.2 mph N/A   Clear
2:15 PM 70.5 °F - 16.2 °F 13% 30.04 in 10.0 mi SW 15.0 mph 21.9 mph N/A   Clear
2:35 PM 73.0 °F - 15.8 °F 11% 30.02 in 10.0 mi SW 13.8 mph 25.3 mph N/A   Clear
2:55 PM 73.2 °F - 14.7 °F 11% 30.01 in 10.0 mi SW 19.6 mph 26.5 mph N/A   Clear
3:15 PM 74.1 °F - 14.2 °F 10% 30.00 in 10.0 mi SW 19.6 mph 29.9 mph N/A   Clear
3:35 PM 73.4 °F - 13.1 °F 10% 29.99 in 10.0 mi SW 11.5 mph 32.2 mph N/A   Clear
3:55 PM 74.1 °F - 12.9 °F 10% 29.98 in 10.0 mi SSW 20.7 mph 31.1 mph N/A   Clear
4:15 PM 71.8 °F - 13.5 °F 11% 29.97 in 10.0 mi SSW 21.9 mph 32.2 mph N/A   Clear
4:35 PM 73.0 °F - 13.8 °F 10% 29.96 in 10.0 mi SSW 20.7 mph 32.2 mph N/A   Clear
4:55 PM 74.3 °F - 13.6 °F 10% 29.96 in 10.0 mi WSW 20.7 mph 28.8 mph N/A   Clear
5:15 PM 73.0 °F - 14.4 °F 11% 29.95 in 10.0 mi SW 13.8 mph 28.8 mph N/A   Clear
5:35 PM 71.2 °F - 16.5 °F 12% 29.95 in 10.0 mi SW 17.3 mph 28.8 mph N/A   Scattered Clouds
5:55 PM 72.1 °F - 16.5 °F 12% 29.95 in 10.0 mi WSW 18.4 mph 32.2 mph N/A   Scattered Clouds
6:15 PM 72.1 °F - 16.0 °F 12% 29.95 in 10.0 mi WSW 21.9 mph 26.5 mph N/A   Scattered Clouds
6:35 PM 68.2 °F - 16.2 °F 14% 29.95 in 10.0 mi West 11.5 mph - N/A   Clear
6:55 PM 66.0 °F - 15.8 °F 14% 29.94 in 10.0 mi SW 9.2 mph - N/A   Scattered Clouds
7:15 PM 64.9 °F - 14.9 °F 14% 29.93 in 10.0 mi SW 5.8 mph - N/A   Scattered Clouds
7:35 PM 66.2 °F - 15.3 °F 14% 29.92 in 10.0 mi SW 18.4 mph 23.0 mph N/A   Scattered Clouds
7:55 PM 67.6 °F - 15.8 °F 14% 29.92 in 10.0 mi SW 19.6 mph 25.3 mph N/A   Mostly Cloudy
8:15 PM 67.1 °F - 14.9 °F 13% 29.94 in 10.0 mi SW 15.0 mph 23.0 mph N/A   Scattered Clouds
8:35 PM 67.1 °F - 14.5 °F 13% 29.94 in 10.0 mi West 13.8 mph 25.3 mph N/A   Scattered Clouds
8:55 PM 65.5 °F - 13.5 °F 13% 29.95 in 10.0 mi West 13.8 mph - N/A   Scattered Clouds
9:15 PM 62.8 °F - 11.7 °F 14% 29.96 in 10.0 mi West 10.4 mph - N/A   Scattered Clouds
9:35 PM 60.3 °F - 11.3 °F 15% 29.96 in 10.0 mi West 10.4 mph - N/A   Clear
9:55 PM 58.3 °F - 11.3 °F 16% 29.97 in 10.0 mi West 10.4 mph - N/A   Clear
10:15 PM 56.8 °F - 11.3 °F 16% 29.98 in 10.0 mi West 11.5 mph - N/A   Clear
10:35 PM 55.9 °F - 12.7 °F 18% 29.98 in 10.0 mi West 12.7 mph - N/A   Clear
10:55 PM 55.2 °F - 13.3 °F 19% 29.98 in 10.0 mi West 11.5 mph - N/A   Clear
11:15 PM 54.7 °F - 14.4 °F 20% 29.99 in 10.0 mi West 12.7 mph - N/A   Clear
11:35 PM 55.0 °F - 15.1 °F 21% 29.99 in 10.0 mi West 10.4 mph - N/A   Clear
11:55 PM 51.3 °F - 14.5 °F 23% 30.00 in 10.0 mi West 9.2 mph - N/A   Clear